Weather Service Report


822 
ASUS41 KCLE 211212
RWRCLE
OHIO REGIONAL WEATHER ROUNDUP
NATIONAL WEATHER SERVICE WILMINGTON, OH
700 AM EST TUE FEB 21 2017

NOTE: "FAIR" INDICATES FEW OR NO CLOUDS BELOW 12,000 FEET WITH NO
SIGNIFICANT WEATHER AND/OR OBSTRUCTIONS TO VISIBILITY.

OHZ001>008-015>018-024>027-034-035-043-044-211300-
   NORTHWEST OHIO
  
CITY           SKY/WX    TMP DP  RH WIND       PRES   REMARKS
DEFIANCE       FAIR      39  35  86 CALM      29.98F                  
FINDLAY        FAIR      50  39  66 S9        29.98S                  
TOLEDO EXPRESS FAIR      38  35  89 CALM      29.97F                  
TOLEDO EXEC    FAIR      39  36  89 CALM      29.99F                  
LIMA           FAIR      52  41  66 S9        30.00R                  
$$
 
OHZ009>014-019>023-028>033-038-089-211300-
   NORTHEAST OHIO
  
CITY           SKY/WX    TMP DP  RH WIND       PRES   REMARKS
CLE-HOPKINS    CLOUDY    50  32  50 S9        30.03S                  
CLE-LAKEFRONT  FAIR      51  31  46 SE17      29.99F                  
CUY CO. ARPT   MOCLDY    52  32  46 S12G21    30.02                   
LORAIN-ELYRIA  FAIR      47  34  60 S10       30.01S                  
ASHTABULA      FAIR      46  31  55 S13       30.05F                  
AKRON-CANTON   MOCLDY    46  32  58 S8        30.04R                  
WOOSTER        FAIR      41  34  76 SE3       30.03F                  
MANSFIELD      FAIR      50  36  58 S9        30.01F                  
YOUNGSTOWN     CLOUDY    47  30  51 SE10G21   30.06F                  
$$
 
OHZ042-051>053-060>062-070>072-077>081-211300-
  SOUTHWEST OHIO
  
CITY           SKY/WX    TMP DP  RH WIND       PRES   REMARKS
CINC-COVINGTON MOCLDY    52  42  69 S7        30.01S                  
CINC-LUNKEN    FAIR      41  40  96 CALM      30.04S                  
HAMILTON       FAIR      41  39  93 CALM      30.03S                  
DAYTON         CLOUDY    52  39  61 S12       30.01F                  
WRIGHT-PAT AFB CLOUDY    47  42  82 SE3       30.01S                  
DAYTON GENERAL FAIR      50  40  68 S8        30.01R                  
WILMINGTON     FAIR      50  40  68 SW5       30.02S                  
$$

OHZ036-037-039>041-045>050-054>059-063>069-073>076-082>088-211300-
  CENTRAL AND SOUTHEAST OHIO
  
CITY           SKY/WX    TMP DP  RH WIND       PRES   REMARKS
COLUMBUS       CLOUDY    50  38  63 SE3       30.03R                  
OSU AIRPORT    FAIR      47  40  76 SE3       30.02R                  
BOLTON FIELD   FAIR      45  40  82 S5        30.03S                  
RICKENBACK AFB FAIR      41  39  94 CALM      30.03R                  
NEWARK         FAIR      40  37  89 CALM      30.03S                  
MARION         FAIR      48  37  65 S8        30.01F                  
LANCASTER      FAIR      46  39  76 SE5       30.03S                  
ZANESVILLE     FAIR      44  36  73 CALM      30.04F                  
NEW PHILLY     FAIR      46  35  65 SE5       30.06S                  
$$
  

Return to Home page


Western Regional Climate Center, wrcc@dri.edu